When you browse on this site, cookies collect data to enhance your experience and personalize the content and advertising you see.
Visit our Privacy Policy to learn more. By continuing to use the site, you agree to this use of cookies and data.
  • In United Kingdom
  • List of Countries
  • For 7 days
  • Water Temperature
  • Satellite Maps
  • Weather Map
  • Weather Widgets
  • user-avatar
    Login

    Hourly Weather Yopal

    Today, 21 April, Sunday

    Time Temperature Precipitation Wind Pressure Humidity
    00:00 +26°C° 0 mm 1 mps 731 mmHg 84%
    01:00 +26°C° 0 mm 1 mps 731 mmHg 83%
    02:00 +24°C° 0 mm 0 mps 730 mmHg 83%
    03:00 +24°C° 0 mm 0 mps 730 mmHg 83%
    04:00 +23°C° 0 mm 0 mps 730 mmHg 83%
    05:00 +24°C° 0.1 mm 0 mps 730 mmHg 81%
    06:00 +24°C° 0.1 mm 0 mps 731 mmHg 79%
    07:00 +25°C° 0.1 mm 0 mps 731 mmHg 77%
    08:00 +27°C° 0.1 mm 0 mps 731 mmHg 70%
    09:00 +30°C° 0.1 mm 1 mps 732 mmHg 63%
    10:00 +32°C° 0.1 mm 1 mps 732 mmHg 56%
    11:00 +32°C° 0.3 mm 2 mps 732 mmHg 57%
    12:00 +34°C° 0.3 mm 2 mps 731 mmHg 58%
    13:00 +34°C° 0.3 mm 2 mps 730 mmHg 58%
    14:00 +32°C° 0.2 mm 2 mps 730 mmHg 61%
    15:00 +31°C° 0.2 mm 2 mps 729 mmHg 64%
    16:00 +31°C° 0.2 mm 2 mps 728 mmHg 67%
    17:00 +30°C° 0.1 mm 1 mps 729 mmHg 73%
    18:00 +28°C° 0.1 mm 1 mps 729 mmHg 79%
    19:00 +27°C° 0.1 mm 1 mps 729 mmHg 85%
    20:00 +27°C° 0.1 mm 1 mps 730 mmHg 85%
    21:00 +27°C° 0.1 mm 1 mps 730 mmHg 84%
    22:00 +27°C° 0.1 mm 1 mps 731 mmHg 83%
    23:00 +27°C° 0.1 mm 1 mps 731 mmHg 82%

    Tomorrow, 22 April, Monday

    Time Temperature Precipitation Wind Pressure Humidity
    00:00 +26°C° 0.1 mm 1 mps 730 mmHg 81%
    01:00 +26°C° 0.1 mm 1 mps 730 mmHg 80%
    02:00 +26°C° 0.1 mm 1 mps 729 mmHg 79%
    03:00 +26°C° 0.1 mm 1 mps 729 mmHg 78%
    04:00 +26°C° 0.1 mm 1 mps 729 mmHg 77%
    05:00 +26°C° 0.1 mm 1 mps 729 mmHg 75%
    06:00 +26°C° 0.1 mm 1 mps 729 mmHg 74%
    07:00 +27°C° 0.1 mm 1 mps 730 mmHg 73%
    08:00 +28°C° 0.2 mm 1 mps 730 mmHg 68%
    09:00 +29°C° 0.2 mm 2 mps 731 mmHg 63%
    10:00 +31°C° 0.2 mm 2 mps 731 mmHg 58%
    11:00 +32°C° 0 mm 2 mps 731 mmHg 55%
    12:00 +32°C° 0 mm 2 mps 730 mmHg 52%
    13:00 +34°C° 0 mm 2 mps 729 mmHg 50%
    14:00 +32°C° 0 mm 2 mps 729 mmHg 53%
    15:00 +32°C° 0 mm 2 mps 728 mmHg 56%
    16:00 +31°C° 0 mm 2 mps 727 mmHg 59%
    17:00 +30°C° 0.2 mm 1 mps 728 mmHg 67%
    18:00 +28°C° 0.2 mm 1 mps 728 mmHg 75%
    19:00 +25°C° 0.2 mm 0 mps 729 mmHg 83%
    20:00 +26°C° 0.3 mm 1 mps 729 mmHg 83%
    21:00 +26°C° 0.3 mm 1 mps 730 mmHg 83%
    22:00 +26°C° 0.3 mm 1 mps 731 mmHg 83%
    23:00 +26°C° 0.5 mm 1 mps 730 mmHg 84%

    Day after tomorrow, 23 April, Tuesday

    Time Temperature Precipitation Wind Pressure Humidity
    00:00 +26°C° 0.5 mm 1 mps 730 mmHg 84%
    01:00 +25°C° 0.5 mm 1 mps 729 mmHg 85%
    02:00 +25°C° 0.3 mm 1 mps 729 mmHg 85%
    03:00 +25°C° 0.3 mm 1 mps 729 mmHg 85%
    04:00 +25°C° 0.3 mm 1 mps 728 mmHg 85%
    05:00 +25°C° 0.1 mm 1 mps 729 mmHg 84%
    06:00 +26°C° 0.1 mm 1 mps 729 mmHg 82%
    07:00 +24°C° 0.1 mm 0 mps 730 mmHg 81%
    08:00 +28°C° 0 mm 1 mps 730 mmHg 72%
    09:00 +30°C° 0 mm 1 mps 731 mmHg 64%
    10:00 +32°C° 0 mm 1 mps 731 mmHg 56%
    11:00 +32°C° 0 mm 2 mps 731 mmHg 55%
    12:00 +34°C° 0 mm 2 mps 730 mmHg 55%
    13:00 +34°C° 0 mm 2 mps 729 mmHg 54%
    14:00 +32°C° 0.2 mm 2 mps 729 mmHg 58%
    15:00 +31°C° 0.2 mm 2 mps 728 mmHg 63%
    16:00 +30°C° 0.2 mm 1 mps 727 mmHg 67%
    17:00 +29°C° 0.5 mm 1 mps 728 mmHg 74%
    18:00 +26°C° 0.5 mm 0 mps 728 mmHg 81%
    19:00 +24°C° 0.5 mm 0 mps 729 mmHg 87%
    20:00 +24°C° 0.4 mm 0 mps 729 mmHg 87%
    21:00 +24°C° 0.4 mm 0 mps 730 mmHg 87%
    22:00 +24°C° 0.4 mm 0 mps 730 mmHg 87%
    23:00 +24°C° 0.2 mm 0 mps 730 mmHg 86%

    24 April, Wednesday

    Time Temperature Precipitation Wind Pressure Humidity
    00:00 +24°C° 0.2 mm 0 mps 730 mmHg 86%
    01:00 +24°C° 0.2 mm 0 mps 729 mmHg 86%
    02:00 +23°C° 0.1 mm 0 mps 729 mmHg 86%
    03:00 +23°C° 0.1 mm 0 mps 729 mmHg 86%
    04:00 +23°C° 0.1 mm 0 mps 729 mmHg 86%
    05:00 +24°C° 0 mm 0 mps 729 mmHg 84%
    06:00 +24°C° 0 mm 0 mps 730 mmHg 82%
    07:00 +25°C° 0 mm 0 mps 731 mmHg 80%
    08:00 +27°C° 0.1 mm 0 mps 731 mmHg 73%
    09:00 +29°C° 0.1 mm 0 mps 731 mmHg 66%
    10:00 +33°C° 0.1 mm 1 mps 732 mmHg 59%
    11:00 +33°C° 0.1 mm 1 mps 731 mmHg 57%
    12:00 +34°C° 0.1 mm 1 mps 730 mmHg 55%
    13:00 +34°C° 0.1 mm 1 mps 729 mmHg 54%
    14:00 +33°C° 0.3 mm 1 mps 729 mmHg 57%
    15:00 +33°C° 0.3 mm 1 mps 728 mmHg 60%
    16:00 +32°C° 0.3 mm 1 mps 727 mmHg 63%
    17:00 +30°C° 1.4 mm 1 mps 728 mmHg 71%
    18:00 +26°C° 1.4 mm 0 mps 729 mmHg 80%
    19:00 +25°C° 1.4 mm 0 mps 729 mmHg 88%
    20:00 +25°C° 1.3 mm 0 mps 730 mmHg 88%
    21:00 +26°C° 1.3 mm 1 mps 730 mmHg 88%
    22:00 +26°C° 1.3 mm 1 mps 731 mmHg 88%
    23:00 +26°C° 0.4 mm 1 mps 730 mmHg 87%

    25 April, Thursday

    Time Temperature Precipitation Wind Pressure Humidity
    00:00 +26°C° 0.4 mm 1 mps 730 mmHg 86%
    01:00 +26°C° 0.4 mm 1 mps 730 mmHg 85%
    02:00 +26°C° 0.6 mm 1 mps 729 mmHg 85%
    03:00 +25°C° 0.6 mm 1 mps 729 mmHg 85%
    04:00 +25°C° 0.6 mm 1 mps 729 mmHg 85%
    05:00 +24°C° 0.3 mm 0 mps 730 mmHg 83%
    06:00 +25°C° 0.3 mm 0 mps 731 mmHg 81%
    07:00 +25°C° 0.3 mm 0 mps 731 mmHg 79%
    08:00 +27°C° 0.6 mm 0 mps 731 mmHg 74%
    09:00 +30°C° 0.6 mm 1 mps 732 mmHg 68%
    10:00 +32°C° 0.6 mm 1 mps 732 mmHg 63%
    11:00 +32°C° 0.6 mm 1 mps 731 mmHg 62%
    12:00 +33°C° 0.6 mm 1 mps 730 mmHg 60%
    13:00 +33°C° 0.6 mm 1 mps 730 mmHg 59%
    14:00 +32°C° 0.7 mm 1 mps 729 mmHg 64%
    15:00 +31°C° 0.7 mm 1 mps 729 mmHg 70%
    16:00 +30°C° 0.7 mm 1 mps 728 mmHg 75%
    17:00 +29°C° 0.4 mm 1 mps 729 mmHg 80%
    18:00 +28°C° 0.4 mm 1 mps 730 mmHg 85%
    19:00 +26°C° 0.4 mm 1 mps 730 mmHg 90%
    20:00 +26°C° 0.4 mm 1 mps 731 mmHg 88%
    21:00 +26°C° 0.4 mm 1 mps 731 mmHg 87%
    22:00 +26°C° 0.4 mm 1 mps 732 mmHg 85%
    23:00 +26°C° 0.2 mm 1 mps 731 mmHg 85%

    26 April, Friday

    Time Temperature Precipitation Wind Pressure Humidity
    00:00 +24°C° 0.2 mm 0 mps 731 mmHg 84%
    01:00 +24°C° 0.2 mm 0 mps 730 mmHg 83%
    02:00 +24°C° 0.1 mm 0 mps 730 mmHg 84%
    03:00 +23°C° 0.1 mm 0 mps 730 mmHg 85%
    04:00 +23°C° 0.1 mm 0 mps 730 mmHg 86%
    05:00 +24°C° 0.1 mm 0 mps 730 mmHg 85%
    06:00 +24°C° 0.1 mm 0 mps 731 mmHg 85%
    07:00 +24°C° 0.1 mm 0 mps 731 mmHg 84%
    08:00 +25°C° 0.1 mm 0 mps 732 mmHg 78%
    09:00 +29°C° 0.1 mm 1 mps 732 mmHg 72%
    10:00 +30°C° 0.1 mm 1 mps 732 mmHg 66%
    11:00 +31°C° 0 mm 1 mps 731 mmHg 64%
    12:00 +31°C° 0 mm 2 mps 731 mmHg 62%
    13:00 +32°C° 0 mm 2 mps 730 mmHg 60%
    14:00 +31°C° 0 mm 2 mps 729 mmHg 63%
    15:00 +31°C° 0 mm 2 mps 729 mmHg 65%
    16:00 +31°C° 0 mm 2 mps 728 mmHg 67%
    17:00 +29°C° 0 mm 1 mps 729 mmHg 75%
    18:00 +28°C° 0 mm 1 mps 729 mmHg 82%
    19:00 +26°C° 0 mm 1 mps 729 mmHg 90%
    20:00 +26°C° 0 mm 1 mps 730 mmHg 89%
    21:00 +24°C° 0 mm 0 mps 730 mmHg 88%
    22:00 +24°C° 0 mm 0 mps 731 mmHg 87%
    23:00 +23°C° 0.1 mm 0 mps 730 mmHg 87%
    Show more